GW1728 Weather Reports


Display with metric or nautical units.
time (UTC)temp
F
wind
direction
speed
MPH
gust
MPH
rain 1hr
in
rain 24hr
in
rain mn
in
humidity
%
barometer
mb
20260502130434 50 16 3.0 3.0 0.00 0.00 0.00 54 1020.4
20260502123417 49 20 4.0 5.0 0.00 0.00 0.00 55 1020.1
20260502122914 49 29 5.0 6.0 0.00 0.00 0.00 54 1020.0
20260502122410 49 40 5.0 5.0 0.00 0.00 0.00 54 1019.9
20260502121909 49 12 3.0 3.0 0.00 0.00 0.00 54 1019.8
20260502121405 48 19 6.0 7.0 0.00 0.00 0.00 55 1019.8
20260502120903 48 350 3.0 3.0 0.00 0.00 0.00 54 1019.6
20260502120358 47 25 2.0 2.0 0.00 0.00 0.00 55 1019.6
20260502115856 45 341 3.0 3.0 0.00 0.00 0.00 58 1019.6
20260502115353 44 348 3.0 3.0 0.00 0.00 0.00 60 1019.8
20260502114849 45 350 0.0 0.0 0.00 0.00 0.00 58 1019.6
20260502114346 44 330 2.0 2.0 0.00 0.00 0.00 58 1019.2
20260502113843 45 325 2.0 2.0 0.00 0.00 0.00 58 1019.1
20260502113341 45 349 2.0 2.0 0.00 0.00 0.00 58 1019.1
20260502112839 44 346 2.0 3.0 0.00 0.00 0.00 59 1019.0
20260502112336 43 310 1.0 1.0 0.00 0.00 0.00 60 1019.1
20260502111834 44 310 0.0 1.0 0.00 0.00 0.00 60 1019.0
20260502111331 44 313 0.0 0.0 0.00 0.00 0.00 59 1018.7
20260502110828 44 326 1.0 1.0 0.00 0.00 0.00 58 1018.7
20260502110326 45 334 1.0 2.0 0.00 0.00 0.00 58 1018.7
20260502105823 46 331 2.0 2.0 0.00 0.00 0.00 56 1018.6
20260502105320 47 311 1.0 1.0 0.00 0.00 0.00 55 1018.5
20260502104818 47 341 2.0 3.0 0.00 0.00 0.00 55 1018.6
20260502104315 47 324 2.0 3.0 0.00 0.00 0.00 53 1018.6
20260502103812 48 348 4.0 5.0 0.00 0.00 0.00 53 1018.6
20260502103310 48 328 3.0 3.0 0.00 0.00 0.00 52 1018.3
20260502102807 48 344 4.0 5.0 0.00 0.00 0.00 51 1018.3
20260502102306 48 340 3.0 3.0 0.00 0.00 0.00 52 1018.0
20260502101801 48 322 2.0 3.0 0.00 0.00 0.00 53 1017.9
20260502101259 48 341 3.0 3.0 0.00 0.00 0.00 54 1017.9
20260502100757 48 340 3.0 3.0 0.00 0.00 0.00 52 1017.8
20260502100256 48 318 1.0 1.0 0.00 0.00 0.00 53 1017.8
20260502091229 47 350 2.0 2.0 0.00 0.00 0.00 52 1017.4
20260502090727 46 356 2.0 2.0 0.00 0.00 0.00 55 1017.3
20260502090223 47 359 2.0 2.0 0.00 0.00 0.00 53 1017.4
20260502071119 46 155 0.0 0.0 0.00 0.00 0.00 48 1016.8
20260502070617 45 155 0.0 0.0 0.00 0.00 0.00 52 1016.9
20260502070115 45 153 0.0 0.0 0.00 0.00 0.00 48 1016.7
20260502065613 46 152 0.0 0.0 0.00 0.00 0.00 47 1016.7
20260502065110 46 152 0.0 0.0 0.00 0.00 0.00 46 1016.8
20260502064609 44 152 0.0 0.0 0.00 0.00 0.00 46 1016.9
20260502064106 45 152 0.0 0.0 0.00 0.00 0.00 46 1016.8
20260502063603 45 152 0.0 0.0 0.00 0.00 0.00 45 1016.8
20260502063101 45 152 0.0 0.0 0.00 0.00 0.00 46 1016.9
20260502062558 46 152 0.0 0.0 0.00 0.00 0.00 44 1016.8
20260502062055 46 151 0.0 0.0 0.00 0.00 0.00 44 1016.9
20260502061553 47 145 1.0 1.0 0.00 0.00 0.00 42 1017.1
20260502061050 47 140 0.0 0.0 0.00 0.00 0.00 41 1017.1
20260502060545 46 124 3.0 3.0 0.00 0.00 0.00 42 1016.8
20260502060043 46 141 1.0 1.0 0.00 0.00 0.00 43 1016.8
20260502055540 47 137 3.0 3.0 0.00 0.00 0.00 42 1016.7
20260502055038 48 112 0.0 1.0 0.00 0.00 0.00 43 1016.6
20260502054537 48 66 0.0 0.0 0.00 0.00 0.00 43 1016.4
20260502054033 47 104 1.0 2.0 0.00 0.00 0.00 45 1016.5
20260502053530 47 247 1.0 1.0 0.00 0.00 0.00 46 1016.5
20260502053028 48 274 0.0 0.0 0.00 0.00 0.00 46 1016.3
20260502052527 49 278 0.0 0.0 0.00 0.00 0.00 46 1016.4
20260502052024 49 279 0.0 0.0 0.00 0.00 0.00 45 1016.3
20260502051522 50 280 0.0 0.0 0.00 0.00 0.00 44 1016.3
20260502051020 51 291 0.0 0.0 0.00 0.00 0.00 41 1016.1
20260502050515 52 296 0.0 0.0 0.00 0.00 0.00 40 1016.3
20260502050013 53 298 1.0 1.0 0.00 0.00 0.00 38 1016.1
20260502045509 53 297 2.0 2.0 0.00 0.00 0.00 38 1016.2
20260502045007 54 313 2.0 2.0 0.00 0.00 0.00 37 1016.0
20260502044503 54 322 2.0 2.0 0.00 0.00 0.00 36 1016.2
20260502043959 54 314 1.0 1.0 0.00 0.00 0.00 36 1016.2
20260502043457 54 323 2.0 2.0 0.00 0.00 0.00 36 1016.0
20260502042956 54 300 1.0 2.0 0.00 0.00 0.00 36 1016.2
20260502042454 53 284 0.0 0.0 0.00 0.00 0.00 37 1016.0
20260502041951 53 283 1.0 1.0 0.00 0.00 0.00 37 1016.2
20260502041449 53 284 1.0 2.0 0.00 0.00 0.00 37 1016.2
20260502040945 52 282 1.0 1.0 0.00 0.00 0.00 38 1016.1
20260502040442 52 281 0.0 0.0 0.00 0.00 0.00 38 1016.2
20260502035938 52 281 0.0 0.0 0.00 0.00 0.00 37 1016.0
20260502035434 53 281 0.0 0.0 0.00 0.00 0.00 36 1016.2
20260502034933 53 281 0.0 0.0 0.00 0.00 0.00 34 1016.2
20260502034431 52 281 0.0 0.0 0.00 0.00 0.00 37 1016.0
20260502033929 52 281 0.0 0.0 0.00 0.00 0.00 38 1016.0
20260502033426 53 281 0.0 0.0 0.00 0.00 0.00 36 1015.9
20260502032923 55 282 0.0 0.0 0.00 0.00 0.00 35 1015.9
20260502032419 55 284 0.0 0.0 0.00 0.00 0.00 34 1016.0
20260502031916 54 284 0.0 0.0 0.00 0.00 0.00 37 1015.9
20260502031415 55 294 0.0 0.0 0.00 0.00 0.00 37 1015.6
20260502030913 56 283 0.0 0.0 0.00 0.00 0.00 36 1015.5
20260502030411 56 283 0.0 0.0 0.00 0.00 0.00 35 1015.6
20260502025909 57 283 0.0 0.0 0.00 0.00 0.00 34 1015.5
20260502025405 57 284 0.0 0.0 0.00 0.00 0.00 33 1015.5
20260502024903 57 298 0.0 0.0 0.00 0.00 0.00 35 1015.5
20260502024401 58 279 0.0 0.0 0.00 0.00 0.00 34 1015.3
20260502023858 59 281 0.0 1.0 0.00 0.00 0.00 32 1015.2
20260502023355 60 298 2.0 2.0 0.00 0.00 0.00 30 1015.4
20260502022854 61 266 0.0 0.0 0.00 0.00 0.00 29 1015.3
20260502022349 62 265 0.0 0.0 0.00 0.00 0.00 27 1015.2
20260502021846 63 265 0.0 0.0 0.00 0.00 0.00 26 1015.2
20260502021344 64 265 0.0 0.0 0.00 0.00 0.00 26 1015.1
20260502020841 64 272 0.0 0.0 0.00 0.00 0.00 26 1015.2
20260502020339 66 272 0.0 0.0 0.00 0.00 0.00 26 1015.1
20260502015835 67 272 0.0 0.0 0.00 0.00 0.00 25 1015.1
20260502015332 68 272 0.0 0.0 0.00 0.00 0.00 25 1015.3
20260502014830 69 273 0.0 0.0 0.00 0.00 0.00 25 1015.1
20260502014327 70 273 0.0 0.0 0.00 0.00 0.00 22 1015.1
20260502013823 71 248 1.0 2.0 0.00 0.00 0.00 21 1015.2
20260502013318 73 244 0.0 0.0 0.00 0.00 0.00 22 1015.0
20260502012815 73 253 0.0 0.0 0.00 0.00 0.00 21 1015.1
20260502012313 74 261 0.0 0.0 0.00 0.00 0.00 23 1015.3
20260502011810 74 262 0.0 0.0 0.00 0.00 0.00 23 1015.3
20260502011306 74 266 0.0 0.0 0.00 0.00 0.00 21 1015.1
20260502010804 75 268 1.0 1.0 0.00 0.00 0.00 19 1015.3
20260502010300 75 329 2.0 3.0 0.00 0.00 0.00 18 1015.2
20260502005757 76 238 0.0 0.0 0.00 0.00 0.00 17 1015.2
20260502005255 76 323 2.0 3.0 0.00 0.00 0.00 17 1015.2
20260502004751 76 237 3.0 3.0 0.00 0.00 0.00 17 1015.3
20260502004248 77 250 5.0 7.0 0.00 0.00 0.00 16 1015.3
20260502003746 77 287 1.0 1.0 0.00 0.00 0.00 18 1015.4
20260502003243 77 246 3.0 3.0 0.00 0.00 0.00 17 1015.5
20260502002738 76 262 2.0 2.0 0.00 0.00 0.00 17 1015.4
20260502002236 76 343 3.0 5.0 0.00 0.00 0.00 17 1015.3
20260502001733 77 277 4.0 7.0 0.00 0.00 0.00 16 1015.5
20260502001231 76 326 2.0 2.0 0.00 0.00 0.00 17 1015.3
20260502000729 77 3 3.0 3.0 0.00 0.00 0.00 16 1015.4
20260502000227 77 272 2.0 3.0 0.00 0.00 0.00 17 1015.6
20260501235721 76 248 2.0 2.0 0.00 0.00 0.00 16 1015.5
20260501235218 77 265 2.0 2.0 0.00 0.00 0.00 18 1015.6
20260501234714 76 255 0.0 0.0 0.00 0.00 0.00 17 1015.6
20260501234211 75 234 5.0 6.0 0.00 0.00 0.00 18 1015.6
20260501233709 76 262 1.0 1.0 0.00 0.00 0.00 17 1015.7
20260501233206 77 231 3.0 5.0 0.00 0.00 0.00 17 1015.6
20260501232702 76 330 3.0 5.0 0.00 0.00 0.00 17 1015.7
20260501232159 75 278 3.0 3.0 0.00 0.00 0.00 18 1015.6
20260501231657 76 217 7.0 8.0 0.00 0.00 0.00 16 1015.7
20260501231155 77 229 1.0 2.0 0.00 0.00 0.00 17 1016.1
20260501230653 77 236 4.0 5.0 0.00 0.00 0.00 16 1016.0
20260501230151 77 230 0.0 0.0 0.00 0.00 0.00 15 1016.1
20260501225648 76 307 3.0 3.0 0.00 0.00 0.00 16 1016.2
20260501225144 75 243 2.0 2.0 0.00 0.00 0.00 18 1016.2
20260501224641 76 233 6.0 8.0 0.00 0.00 0.00 19 1016.1
20260501224139 75 221 5.0 5.0 0.00 0.00 0.00 17 1016.3
20260501223635 75 221 4.0 5.0 0.00 0.00 0.00 17 1016.3
20260501223132 76 340 4.0 5.0 0.00 0.00 0.00 16 1016.4
20260501222627 77 262 3.0 5.0 0.00 0.00 0.00 16 1016.3
20260501222125 76 278 2.0 2.0 0.00 0.00 0.00 19 1016.4
20260501221621 75 265 5.0 6.0 0.00 0.00 0.00 19 1016.4
20260501221119 76 223 7.0 9.0 0.00 0.00 0.00 20 1016.5
20260501220617 76 299 2.0 2.0 0.00 0.00 0.00 18 1016.5
20260501220113 75 4 4.0 6.0 0.00 0.00 0.00 17 1016.6
20260501215610 75 327 5.0 7.0 0.00 0.00 0.00 17 1016.6
20260501215105 75 17 3.0 3.0 0.00 0.00 0.00 17 1016.7
20260501214600 75 287 2.0 3.0 0.00 0.00 0.00 17 1016.7
20260501214056 76 299 2.0 3.0 0.00 0.00 0.00 18 1016.7
20260501213553 75 230 3.0 3.0 0.00 0.00 0.00 19 1016.8
20260501213050 76 222 5.0 6.0 0.00 0.00 0.00 19 1016.9
20260501212546 75 352 6.0 7.0 0.00 0.00 0.00 17 1016.8
20260501212043 75 3 5.0 6.0 0.00 0.00 0.00 18 1016.9
20260501211539 75 346 2.0 3.0 0.00 0.00 0.00 19 1017.1
20260501211038 74 138 1.0 1.0 0.00 0.00 0.00 20 1017.1
20260501210533 74 358 3.0 3.0 0.00 0.00 0.00 19 1017.3
20260501210031 75 311 5.0 6.0 0.00 0.00 0.00 17 1017.1
20260501205527 75 302 3.0 3.0 0.00 0.00 0.00 19 1017.2
20260501205025 74 312 2.0 2.0 0.00 0.00 0.00 19 1017.3
20260501204521 73 242 3.0 5.0 0.00 0.00 0.00 19 1017.4
20260501204017 74 237 1.0 1.0 0.00 0.00 0.00 19 1017.4
20260501203514 74 359 3.0 3.0 0.00 0.00 0.00 19 1017.5
20260501203012 73 349 4.0 5.0 0.00 0.00 0.00 19 1017.5
20260501202508 73 340 4.0 5.0 0.00 0.00 0.00 19 1017.5
20260501202004 73 225 2.0 2.0 0.00 0.00 0.00 18 1017.7
20260501201502 74 334 4.0 6.0 0.00 0.00 0.00 19 1017.7
20260501200958 73 294 4.0 5.0 0.00 0.00 0.00 19 1017.7
20260501200456 73 245 6.0 7.0 0.00 0.00 0.00 20 1017.8
20260501195953 72 292 3.0 5.0 0.00 0.00 0.00 18 1017.6
20260501195450 71 347 3.0 3.0 0.00 0.00 0.00 19 1017.7
20260501194945 72 16 7.0 8.0 0.00 0.00 0.00 19 1017.8
20260501194441 72 238 1.0 2.0 0.00 0.00 0.00 17 1017.9
20260501193937 73 256 1.0 1.0 0.00 0.00 0.00 17 1017.9
20260501193436 72 275 2.0 3.0 0.00 0.00 0.00 20 1017.8
20260501192933 73 357 3.0 6.0 0.00 0.00 0.00 18 1017.8
20260501192430 72 301 3.0 5.0 0.00 0.00 0.00 19 1017.9
20260501191927 71 3 9.0 10.0 0.00 0.00 0.00 20 1018.0
20260501191424 71 13 6.0 7.0 0.00 0.00 0.00 19 1018.3
20260501190921 71 332 6.0 6.0 0.00 0.00 0.00 19 1018.2
20260501190417 71 359 4.0 6.0 0.00 0.00 0.00 21 1018.2
20260501185917 70 349 2.0 3.0 0.00 0.00 0.00 21 1018.0
20260501185414 71 317 2.0 2.0 0.00 0.00 0.00 22 1018.3
20260501184910 71 311 5.0 6.0 0.00 0.00 0.00 21 1018.2
20260501184406 73 276 2.0 2.0 0.00 0.00 0.00 21 1018.4
20260501183901 72 3 5.0 6.0 0.00 0.00 0.00 21 1018.4
20260501183359 71 270 7.0 8.0 0.00 0.00 0.00 22 1018.4
20260501182855 72 350 5.0 6.0 0.00 0.00 0.00 20 1018.5
20260501182352 70 300 4.0 6.0 0.00 0.00 0.00 22 1018.4
20260501181849 70 346 5.0 6.0 0.00 0.00 0.00 23 1018.6
20260501181346 71 2 4.0 5.0 0.00 0.00 0.00 21 1018.5
20260501180844 69 357 3.0 5.0 0.00 0.00 0.00 23 1018.6
20260501180339 69 246 6.0 6.0 0.00 0.00 0.00 23 1018.8
20260501175837 71 310 4.0 5.0 0.00 0.00 0.00 23 1018.7
20260501175333 69 28 4.0 6.0 0.00 0.00 0.00 25 1018.9
20260501174830 69 352 4.0 6.0 0.00 0.00 0.00 24 1018.9
20260501174327 70 232 2.0 3.0 0.00 0.00 0.00 24 1018.8
20260501173825 69 275 5.0 8.0 0.00 0.00 0.00 24 1018.9
20260501173323 68 15 5.0 6.0 0.00 0.00 0.00 26 1018.9
20260501172818 68 332 5.0 6.0 0.00 0.00 0.00 26 1018.8
20260501172313 68 203 1.0 1.0 0.00 0.00 0.00 27 1018.9
20260501171809 67 326 4.0 5.0 0.00 0.00 0.00 29 1019.0
20260501171306 68 247 2.0 2.0 0.00 0.00 0.00 28 1019.1
20260501170802 67 4 2.0 2.0 0.00 0.00 0.00 29 1019.2
20260501170300 67 311 3.0 5.0 0.00 0.00 0.00 29 1019.4
20260501165757 66 16 3.0 5.0 0.00 0.00 0.00 30 1019.0
20260501165255 66 307 1.0 2.0 0.00 0.00 0.00 30 1019.0
20260501164752 66 3 5.0 6.0 0.00 0.00 0.00 30 1019.4
20260501164249 65 329 3.0 5.0 0.00 0.00 0.00 30 1019.2
20260501163745 65 330 3.0 5.0 0.00 0.00 0.00 31 1019.0
20260501163243 65 350 3.0 6.0 0.00 0.00 0.00 33 1019.4
20260501162738 64 345 3.0 3.0 0.00 0.00 0.00 33 1019.1
20260501162235 64 0 5.0 6.0 0.00 0.00 0.00 34 1019.2
20260501161732 64 6 5.0 5.0 0.00 0.00 0.00 35 1019.2
20260501161229 65 312 3.0 5.0 0.00 0.00 0.00 33 1019.2
20260501160726 64 252 3.0 3.0 0.00 0.00 0.00 32 1019.2
20260501160223 64 204 3.0 5.0 0.00 0.00 0.00 33 1019.4
20260501155720 63 262 2.0 2.0 0.00 0.00 0.00 32 1019.4
20260501155217 62 255 5.0 7.0 0.00 0.00 0.00 33 1019.4
20260501154714 62 219 5.0 6.0 0.00 0.00 0.00 34 1019.4
20260501154211 61 212 5.0 6.0 0.00 0.00 0.00 35 1019.5
20260501153709 61 245 4.0 5.0 0.00 0.00 0.00 37 1019.5
20260501153206 60 215 4.0 5.0 0.00 0.00 0.00 36 1019.6
20260501152702 59 184 4.0 6.0 0.00 0.00 0.00 39 1019.5
20260501152159 58 194 5.0 6.0 0.00 0.00 0.00 39 1019.7
20260501151656 58 242 4.0 5.0 0.00 0.00 0.00 40 1019.7
20260501151152 57 223 3.0 3.0 0.00 0.00 0.00 41 1019.7
20260501150649 56 200 4.0 6.0 0.00 0.00 0.00 42 1019.5
20260501150145 55 220 2.0 2.0 0.00 0.00 0.00 44 1019.6
20260501145641 53 217 2.0 2.0 0.00 0.00 0.00 46 1019.7
20260501145139 52 220 3.0 3.0 0.00 0.00 0.00 47 1019.7
20260501144635 51 216 3.0 3.0 0.00 0.00 0.00 48 1019.8
20260501144130 50 215 3.0 3.0 0.00 0.00 0.00 49 1019.7
20260501143626 49 190 3.0 3.0 0.00 0.00 0.00 50 1019.7
20260501143124 48 182 0.0 0.0 0.00 0.00 0.00 50 1019.8